Flag Weather past 2 weeks in Katowice, Poland

Now
37 °F

Passing clouds.


Feels Like: 31 °F
Forecast: 30 / 41 °F
Wind: 9 mph from Southeast

Location: Katowice Airport

Current Time: Nov 23, 2014 at 9:06:23 PM

Latest Report: Nov 23, 2014 at 8:30 PM


Visibility: 6 mi

Pressure: 30.36 "Hg

Humidity: 81%

Dew point: 32 °F

Location of KatowiceLocation

Historic Weather in Katowice — Graph

°F

Katowice temperature yesterday

Maximum temperature yesterday: 39 °F (at 1:30 PM)
Minimum temperature yesterday: 36 °F (at 12:00 AM)
Average temperature yesterday: 36 °F

Past Weeks' High & Low Weather Summary

 TemperatureHumidityPressure
High66 °F (Nov 11, 1:30 PM)100% (Nov 8, 8:00 PM)30.42 "Hg (Nov 8, 8:00 PM)
Low36 °F (Nov 20, 3:00 PM)56% (Nov 11, 12:00 PM)29.74 "Hg (Nov 16, 11:00 AM)
Average45 °F92%30.02 "Hg
* Reported Nov 8 8:00 PM — Nov 23 8:00 PM, Katowice, Weather by CustomWeather, © 2014

Note: Actual official high and low records may vary slightly from our data, if they occured in-between our weather recording intervals... More about our weather records

Advertising

Katowice weather history for previous 24 hours

 ConditionsComfort  
Time TempWeatherWind HumidityBarometerVisibility
8:00 PM
Nov 23
37 °FPassing clouds.9 mph81%30.39 "Hg5 mi
7:30 PM39 °FClear.8 mph81%30.39 "Hg4 mi
7:00 PM39 °FClear.7 mph81%30.39 "Hg4 mi
6:30 PM37 °FClear.6 mph87%30.39 "Hg4 mi
6:00 PM37 °FClear.5 mph87%30.39 "Hg4 mi
5:30 PM39 °FClear.6 mph81%30.39 "Hg4 mi
5:00 PM39 °FClear.6 mph81%30.39 "Hg4 mi
4:30 PM39 °FClear.7 mph81%30.39 "Hg4 mi
4:00 PM39 °FClear.8 mph81%30.36 "Hg6 mi
3:30 PM39 °FClear.9 mph81%30.39 "Hg6 mi
3:00 PM41 °FSunny.8 mph76%30.36 "Hg10 mi
2:30 PM41 °FPassing clouds.7 mph76%30.39 "HgN/A
2:00 PM41 °FPassing clouds.9 mph76%30.39 "HgN/A
1:30 PM43 °FScattered clouds.10 mph71%30.39 "HgN/A
1:00 PM41 °FPartly sunny.8 mph76%30.39 "Hg6 mi
12:30 PM41 °FPartly sunny.9 mph76%30.39 "Hg6 mi
12:00 PM41 °FPartly sunny.8 mph76%30.39 "Hg5 mi
11:30 AM41 °FPartly sunny.10 mph81%30.39 "Hg4 mi
11:00 AM41 °FPartly sunny.10 mph76%30.42 "Hg4 mi
10:30 AM39 °FPartly sunny.8 mph87%30.39 "Hg4 mi
10:00 AM39 °FPartly sunny.10 mph87%30.39 "Hg4 mi
9:30 AM39 °FFog.10 mph81%30.39 "Hg3 mi
9:00 AM37 °FFog.10 mph87%30.39 "Hg3 mi
8:30 AM37 °FFog.10 mph87%30.39 "Hg3 mi
8:00 AM37 °FFog.10 mph87%30.39 "Hg3 mi
7:30 AM37 °FPartly sunny.10 mph87%30.36 "Hg4 mi
7:00 AM37 °FFog.9 mph87%30.36 "Hg3 mi
6:30 AM36 °FFog.9 mph93%30.36 "Hg3 mi
6:00 AM36 °FFog.8 mph93%30.36 "Hg2 mi
5:30 AM36 °FFog.6 mph93%30.36 "Hg2 mi
5:00 AM36 °FFog.7 mph93%30.36 "Hg2 mi
4:30 AM36 °FFog.7 mph100%30.36 "Hg2 mi
4:00 AM36 °FFog.7 mph100%30.36 "Hg2 mi
3:30 AM36 °FFog.7 mph93%30.36 "Hg2 mi
3:00 AM36 °FFog.5 mph93%30.36 "Hg2 mi
2:30 AM36 °FFog.6 mph100%30.36 "Hg2 mi
2:00 AM36 °FFog.6 mph93%30.36 "Hg2 mi
1:30 AM36 °FFog.6 mph93%30.36 "Hg2 mi
1:00 AM36 °FFog.5 mph93%30.36 "Hg2 mi
12:30 AM36 °FFog.6 mph93%30.36 "Hg2 mi
12:00 AM36 °FFog.5 mph93%30.36 "Hg2 mi
11:30 PM
Nov 22
36 °FFog.5 mph93%30.36 "Hg2 mi
11:00 PM36 °FFog.6 mph93%30.36 "Hg2 mi
10:30 PM36 °FFog.5 mph93%30.36 "Hg2 mi
10:00 PM36 °FFog.5 mph93%30.36 "Hg2 mi
9:30 PM36 °FFog.5 mph93%30.36 "Hg2 mi
9:00 PM36 °FFog.6 mph93%30.33 "Hg2 mi
Weather by CustomWeather, © 2014

See weather overviewHow to use our weather pages